Time,TemperatureF,DewpointF,PressureIn,WindDirection,WindDirectionDegrees,WindSpeedMPH,WindSpeedGustMPH,Humidity,HourlyPrecipIn,Conditions,Clouds,dailyrainin,SoftwareType,DateUTC
2013-01-02 00:01:00,27.1,20.5,30.44,SW,226,2.0,4.0,76,0.00,,,0.00,Wunderground v.1.15,2013-01-02 07:01:00,
2013-01-02 00:07:00,27.0,20.4,30.44,SSW,198,1.0,4.0,76,0.00,,,0.00,Wunderground v.1.15,2013-01-02 07:07:00,
2013-01-02 00:13:00,27.1,20.2,30.43,WSW,240,1.0,4.0,75,0.00,,,0.00,Wunderground v.1.15,2013-01-02 07:13:00,
2013-01-02 00:19:00,27.1,20.2,30.43,SSW,197,1.0,4.0,75,0.00,,,0.00,Wunderground v.1.15,2013-01-02 07:19:00,
2013-01-02 00:25:00,27.0,20.1,30.43,SSE,153,2.0,4.0,75,0.00,,,0.00,Wunderground v.1.15,2013-01-02 07:25:00,
2013-01-02 00:31:00,26.9,20.0,30.43,South,179,2.0,4.0,75,0.00,,,0.00,Wunderground v.1.15,2013-01-02 07:31:00,
2013-01-02 00:37:00,26.8,20.2,30.43,SW,223,2.0,4.0,76,0.00,,,0.00,Wunderground v.1.15,2013-01-02 07:37:00,
2013-01-02 00:43:00,26.9,20.0,30.43,SSW,213,2.0,4.0,75,0.00,,,0.00,Wunderground v.1.15,2013-01-02 07:43:00,
2013-01-02 00:49:00,26.9,20.0,30.43,SW,232,2.0,2.0,75,0.00,,,0.00,Wunderground v.1.15,2013-01-02 07:49:00,
2013-01-02 00:55:00,27.2,20.0,30.43,SSW,207,2.0,4.0,74,0.00,,,0.00,Wunderground v.1.15,2013-01-02 07:55:00,
2013-01-02 01:01:00,27.2,20.0,30.42,WSW,242,2.0,4.0,74,0.00,,,0.00,Wunderground v.1.15,2013-01-02 08:01:00,
2013-01-02 01:07:00,27.1,19.9,30.42,SW,214,2.0,4.0,74,0.00,,,0.00,Wunderground v.1.15,2013-01-02 08:07:00,
2013-01-02 01:13:00,27.1,19.9,30.42,SSW,212,2.0,4.0,74,0.00,,,0.00,Wunderground v.1.15,2013-01-02 08:13:00,
2013-01-02 01:19:00,26.6,19.4,30.42,SW,215,1.0,4.0,74,0.00,,,0.00,Wunderground v.1.15,2013-01-02 08:19:00,
2013-01-02 01:25:00,26.6,19.7,30.41,SW,235,1.0,4.0,75,0.00,,,0.00,Wunderground v.1.15,2013-01-02 08:25:00,
2013-01-02 01:31:00,27.0,19.8,30.42,SSW,203,1.0,4.0,74,0.00,,,0.00,Wunderground v.1.15,2013-01-02 08:31:00,
2013-01-02 01:37:00,27.1,19.6,30.42,South,173,1.0,4.0,73,0.00,,,0.00,Wunderground v.1.15,2013-01-02 08:37:00,
2013-01-02 01:43:00,27.3,19.5,30.42,SW,229,1.0,4.0,72,0.00,,,0.00,Wunderground v.1.15,2013-01-02 08:43:00,
2013-01-02 01:49:00,27.3,19.5,30.42,WSW,250,1.0,4.0,72,0.00,,,0.00,Wunderground v.1.15,2013-01-02 08:49:00,
2013-01-02 01:55:00,27.2,19.7,30.42,WSW,242,1.0,4.0,73,0.00,,,0.00,Wunderground v.1.15,2013-01-02 08:55:00,
2013-01-02 02:01:00,27.0,19.5,30.42,SSW,212,1.0,4.0,73,0.00,,,0.00,Wunderground v.1.15,2013-01-02 09:01:00,
2013-01-02 02:07:00,26.9,19.4,30.42,SSW,208,1.0,4.0,73,0.00,,,0.00,Wunderground v.1.15,2013-01-02 09:07:00,
2013-01-02 02:13:00,26.9,19.1,30.42,SW,231,1.0,4.0,72,0.00,,,0.00,Wunderground v.1.15,2013-01-02 09:13:00,
2013-01-02 02:19:00,26.8,19.0,30.42,SW,226,1.0,4.0,72,0.00,,,0.00,Wunderground v.1.15,2013-01-02 09:19:00,
2013-01-02 02:25:00,26.9,19.1,30.42,SSW,207,1.0,4.0,72,0.00,,,0.00,Wunderground v.1.15,2013-01-02 09:25:00,
2013-01-02 02:31:00,26.5,19.3,30.42,WSW,240,1.0,4.0,74,0.00,,,0.00,Wunderground v.1.15,2013-01-02 09:31:00,
2013-01-02 02:37:00,26.5,19.3,30.42,South,187,1.0,4.0,74,0.00,,,0.00,Wunderground v.1.15,2013-01-02 09:37:00,
2013-01-02 02:43:00,26.4,18.9,30.42,WSW,241,1.0,4.0,73,0.00,,,0.00,Wunderground v.1.15,2013-01-02 09:43:00,
2013-01-02 02:49:00,26.6,19.1,30.42,SSW,198,1.0,4.0,73,0.00,,,0.00,Wunderground v.1.15,2013-01-02 09:49:00,
2013-01-02 02:55:00,26.8,19.0,30.42,SSW,200,1.0,4.0,72,0.00,,,0.00,Wunderground v.1.15,2013-01-02 09:55:00,
2013-01-02 03:01:00,27.0,19.2,30.42,SSW,210,1.0,2.0,72,0.00,,,0.00,Wunderground v.1.15,2013-01-02 10:01:00,
2013-01-02 03:07:00,26.9,19.1,30.42,SSW,211,1.0,4.0,72,0.00,,,0.00,Wunderground v.1.15,2013-01-02 10:07:00,
2013-01-02 03:13:00,26.6,19.1,30.42,SSW,200,1.0,4.0,73,0.00,,,0.00,Wunderground v.1.15,2013-01-02 10:13:00,
2013-01-02 03:19:00,26.6,19.1,30.42,SSW,207,2.0,4.0,73,0.00,,,0.00,Wunderground v.1.15,2013-01-02 10:19:00,
2013-01-02 03:25:00,26.4,19.2,30.42,SW,217,1.0,4.0,74,0.00,,,0.00,Wunderground v.1.15,2013-01-02 10:25:00,
2013-01-02 03:31:00,26.6,19.1,30.42,SSW,203,1.0,4.0,73,0.00,,,0.00,Wunderground v.1.15,2013-01-02 10:31:00,
2013-01-02 03:37:00,26.7,19.2,30.41,SSE,155,1.0,4.0,73,0.00,,,0.00,Wunderground v.1.15,2013-01-02 10:37:00,
2013-01-02 03:43:00,26.4,19.2,30.41,SSW,210,1.0,4.0,74,0.00,,,0.00,Wunderground v.1.15,2013-01-02 10:43:00,
2013-01-02 03:49:00,25.9,19.1,30.41,SSW,203,1.0,4.0,75,0.00,,,0.00,Wunderground v.1.15,2013-01-02 10:49:00,
2013-01-02 03:55:00,25.4,18.9,30.41,South,183,1.0,4.0,76,0.00,,,0.00,Wunderground v.1.15,2013-01-02 10:55:00,
2013-01-02 04:01:00,25.3,19.1,30.41,South,191,1.0,4.0,77,0.00,,,0.00,Wunderground v.1.15,2013-01-02 11:01:00,
2013-01-02 04:07:00,25.2,19.0,30.41,SW,232,0.0,4.0,77,0.00,,,0.00,Wunderground v.1.15,2013-01-02 11:07:00,
2013-01-02 04:13:00,25.2,19.0,30.41,SSW,197,1.0,4.0,77,0.00,,,0.00,Wunderground v.1.15,2013-01-02 11:13:00,
2013-01-02 04:19:00,25.1,18.9,30.41,SW,214,1.0,4.0,77,0.00,,,0.00,Wunderground v.1.15,2013-01-02 11:19:00,
2013-01-02 04:25:00,25.0,18.8,30.41,SW,236,2.0,4.0,77,0.00,,,0.00,Wunderground v.1.15,2013-01-02 11:25:00,
2013-01-02 04:31:00,25.3,19.1,30.41,SW,231,1.0,4.0,77,0.00,,,0.00,Wunderground v.1.15,2013-01-02 11:31:00,
2013-01-02 04:37:00,25.3,18.8,30.40,SW,232,1.0,4.0,76,0.00,,,0.00,Wunderground v.1.15,2013-01-02 11:37:00,
2013-01-02 04:43:00,25.4,18.9,30.40,SSW,195,1.0,4.0,76,0.00,,,0.00,Wunderground v.1.15,2013-01-02 11:43:00,
2013-01-02 04:49:00,24.9,18.4,30.40,SSW,207,1.0,4.0,76,0.00,,,0.00,Wunderground v.1.15,2013-01-02 11:49:00,
2013-01-02 04:55:00,24.5,18.3,30.40,SSW,211,2.0,4.0,77,0.00,,,0.00,Wunderground v.1.15,2013-01-02 11:55:00,
2013-01-02 05:01:00,24.3,18.4,30.40,SSW,209,1.0,4.0,78,0.00,,,0.00,Wunderground v.1.15,2013-01-02 12:01:00,
2013-01-02 05:07:00,24.0,18.4,30.40,SSE,162,1.0,4.0,79,0.00,,,0.00,Wunderground v.1.15,2013-01-02 12:07:00,
2013-01-02 05:13:00,24.0,18.4,30.40,SW,214,1.0,4.0,79,0.00,,,0.00,Wunderground v.1.15,2013-01-02 12:13:00,
2013-01-02 05:19:00,24.2,18.3,30.39,SSW,207,1.0,1.0,78,0.00,,,0.00,Wunderground v.1.15,2013-01-02 12:19:00,
2013-01-02 05:25:00,24.0,18.4,30.40,SSW,207,1.0,4.0,79,0.00,,,0.00,Wunderground v.1.15,2013-01-02 12:25:00,
2013-01-02 05:31:00,24.1,18.5,30.40,SSW,197,0.0,4.0,79,0.00,,,0.00,Wunderground v.1.15,2013-01-02 12:31:00,
2013-01-02 05:37:00,23.8,18.2,30.40,SSW,193,0.0,4.0,79,0.00,,,0.00,Wunderground v.1.15,2013-01-02 12:37:00,
2013-01-02 05:43:00,23.6,18.0,30.40,SSW,213,0.0,4.0,79,0.00,,,0.00,Wunderground v.1.15,2013-01-02 12:43:00,
2013-01-02 05:49:00,24.0,18.4,30.40,WSW,246,1.0,1.0,79,0.00,,,0.00,Wunderground v.1.15,2013-01-02 12:49:00,
2013-01-02 05:55:00,24.3,18.4,30.41,SW,215,0.0,4.0,78,0.00,,,0.00,Wunderground v.1.15,2013-01-02 12:55:00,
2013-01-02 06:01:00,24.1,18.2,30.41,South,188,1.0,4.0,78,0.00,,,0.00,Wunderground v.1.15,2013-01-02 13:01:00,
2013-01-02 06:07:00,23.8,17.9,30.41,South,186,0.0,4.0,78,0.00,,,0.00,Wunderground v.1.15,2013-01-02 13:07:00,
2013-01-02 06:13:00,23.1,17.6,30.41,WSW,252,1.0,4.0,79,0.00,,,0.00,Wunderground v.1.15,2013-01-02 13:13:00,
2013-01-02 06:19:00,22.5,17.5,30.41,SSW,195,2.0,4.0,81,0.00,,,0.00,Wunderground v.1.15,2013-01-02 13:19:00,
2013-01-02 06:25:00,22.8,17.8,30.41,SSW,200,2.0,4.0,81,0.00,,,0.00,Wunderground v.1.15,2013-01-02 13:25:00,
2013-01-02 06:31:00,23.0,17.7,30.40,SSW,205,1.0,4.0,80,0.00,,,0.00,Wunderground v.1.15,2013-01-02 13:31:00,
2013-01-02 06:37:00,23.6,18.3,30.40,South,187,1.0,4.0,80,0.00,,,0.00,Wunderground v.1.15,2013-01-02 13:37:00,
2013-01-02 06:43:00,24.1,18.2,30.40,SW,218,0.0,4.0,78,0.00,,,0.00,Wunderground v.1.15,2013-01-02 13:43:00,
2013-01-02 06:49:00,24.2,18.0,30.40,SSW,212,0.0,4.0,77,0.00,,,0.00,Wunderground v.1.15,2013-01-02 13:49:00,
2013-01-02 06:55:00,24.4,18.2,30.40,SSW,208,0.0,4.0,77,0.00,,,0.00,Wunderground v.1.15,2013-01-02 13:55:00,
2013-01-02 07:01:00,24.5,18.3,30.40,SW,221,0.0,4.0,77,0.00,,,0.00,Wunderground v.1.15,2013-01-02 14:01:00,
2013-01-02 07:07:00,24.4,18.2,30.40,North,349,0.0,4.0,77,0.00,,,0.00,Wunderground v.1.15,2013-01-02 14:07:00,
2013-01-02 07:13:00,24.7,18.5,30.41,NNW,348,0.0,4.0,77,0.00,,,0.00,Wunderground v.1.15,2013-01-02 14:13:00,
2013-01-02 07:19:00,25.0,18.5,30.41,NW,315,0.0,4.0,76,0.00,,,0.00,Wunderground v.1.15,2013-01-02 14:19:00,
2013-01-02 07:25:00,25.4,18.9,30.40,NNW,330,0.0,4.0,76,0.00,,,0.00,Wunderground v.1.15,2013-01-02 14:25:00,
2013-01-02 07:31:00,25.5,19.0,30.40,WSW,240,0.0,4.0,76,0.00,,,0.00,Wunderground v.1.15,2013-01-02 14:31:00,
2013-01-02 07:37:00,25.6,19.1,30.41,SW,231,0.0,4.0,76,0.00,,,0.00,Wunderground v.1.15,2013-01-02 14:37:00,
2013-01-02 07:43:00,25.7,19.2,30.41,SW,231,0.0,4.0,76,0.00,,,0.00,Wunderground v.1.15,2013-01-02 14:43:00,
2013-01-02 07:49:00,25.7,19.2,30.40,SW,231,0.0,4.0,76,0.00,,,0.00,Wunderground v.1.15,2013-01-02 14:49:00,
2013-01-02 07:55:00,25.8,19.3,30.40,SW,231,0.0,4.0,76,0.00,,,0.00,Wunderground v.1.15,2013-01-02 14:55:00,
2013-01-02 08:01:00,25.9,19.7,30.41,SW,231,0.0,4.0,77,0.00,,,0.00,Wunderground v.1.15,2013-01-02 15:01:00,
2013-01-02 08:07:00,26.3,20.1,30.41,WNW,290,0.0,4.0,77,0.00,,,0.00,Wunderground v.1.15,2013-01-02 15:07:00,
2013-01-02 08:13:00,27.6,20.4,30.41,NNW,343,0.0,4.0,74,0.00,,,0.00,Wunderground v.1.15,2013-01-02 15:13:00,
2013-01-02 08:19:00,28.8,20.6,30.42,North,1,0.0,4.0,71,0.00,,,0.00,Wunderground v.1.15,2013-01-02 15:19:00,
2013-01-02 08:25:00,29.6,20.7,30.41,North,352,0.0,4.0,69,0.00,,,0.00,Wunderground v.1.15,2013-01-02 15:25:00,
2013-01-02 08:31:00,30.0,20.4,30.41,North,350,0.0,4.0,67,0.00,,,0.00,Wunderground v.1.15,2013-01-02 15:31:00,
2013-01-02 08:37:00,30.5,20.8,30.41,North,350,0.0,4.0,67,0.00,,,0.00,Wunderground v.1.15,2013-01-02 15:37:00,
2013-01-02 08:43:00,31.0,20.6,30.41,NNE,20,0.0,4.0,65,0.00,,,0.00,Wunderground v.1.15,2013-01-02 15:43:00,
2013-01-02 08:49:00,31.5,21.1,30.41,North,1,0.0,4.0,65,0.00,,,0.00,Wunderground v.1.15,2013-01-02 15:49:00,
2013-01-02 08:55:00,31.9,21.1,30.41,NNE,13,0.0,4.0,64,0.00,,,0.00,Wunderground v.1.15,2013-01-02 15:55:00,
2013-01-02 09:01:00,32.3,21.1,30.41,NE,38,0.0,4.0,63,0.00,,,0.00,Wunderground v.1.15,2013-01-02 16:01:00,
2013-01-02 09:07:00,32.8,21.6,30.41,NE,34,0.0,4.0,63,0.00,,,0.00,Wunderground v.1.15,2013-01-02 16:07:00,
2013-01-02 09:13:00,33.0,21.8,30.41,NNW,330,1.0,4.0,63,0.00,,,0.00,Wunderground v.1.15,2013-01-02 16:13:00,
2013-01-02 09:19:00,33.5,21.9,30.41,NE,34,1.0,1.0,62,0.00,,,0.00,Wunderground v.1.15,2013-01-02 16:19:00,
2013-01-02 09:25:00,34.3,22.2,30.41,NNE,33,1.0,4.0,61,0.00,,,0.00,Wunderground v.1.15,2013-01-02 16:25:00,
2013-01-02 09:31:00,34.7,22.6,30.41,NNE,22,1.0,3.0,61,0.00,,,0.00,Wunderground v.1.15,2013-01-02 16:31:00,
2013-01-02 09:37:00,35.0,22.5,30.41,ENE,70,1.0,4.0,60,0.00,,,0.00,Wunderground v.1.15,2013-01-02 16:37:00,
2013-01-02 09:43:00,35.5,23.0,30.41,NNE,25,2.0,4.0,60,0.00,,,0.00,Wunderground v.1.15,2013-01-02 16:43:00,
2013-01-02 09:49:00,35.9,23.0,30.41,NE,39,2.0,4.0,59,0.00,,,0.00,Wunderground v.1.15,2013-01-02 16:49:00,
2013-01-02 09:55:00,36.5,23.1,30.42,NE,46,1.0,4.0,58,0.00,,,0.00,Wunderground v.1.15,2013-01-02 16:55:00,
2013-01-02 10:01:00,36.9,23.5,30.42,North,350,1.0,4.0,58,0.00,,,0.00,Wunderground v.1.15,2013-01-02 17:01:00,
2013-01-02 10:07:00,37.6,23.3,30.42,ENE,58,1.0,4.0,56,0.00,,,0.00,Wunderground v.1.15,2013-01-02 17:07:00,
2013-01-02 10:13:00,38.0,23.3,30.41,North,356,1.0,4.0,55,0.00,,,0.00,Wunderground v.1.15,2013-01-02 17:13:00,
2013-01-02 10:19:00,38.7,23.5,30.42,ENE,63,1.0,1.0,54,0.00,,,0.00,Wunderground v.1.15,2013-01-02 17:19:00,
2013-01-02 10:25:00,39.9,23.7,30.42,NE,43,1.0,4.0,52,0.00,,,0.00,Wunderground v.1.15,2013-01-02 17:25:00,
2013-01-02 10:31:00,40.5,23.8,30.42,ENE,65,1.0,4.0,51,0.00,,,0.00,Wunderground v.1.15,2013-01-02 17:31:00,
2013-01-02 10:37:00,40.8,23.6,30.41,ENE,61,1.0,4.0,50,0.00,,,0.00,Wunderground v.1.15,2013-01-02 17:37:00,
2013-01-02 10:43:00,41.5,23.7,30.41,ENE,61,2.0,4.0,49,0.00,,,0.00,Wunderground v.1.15,2013-01-02 17:43:00,
2013-01-02 10:49:00,42.5,22.6,30.41,ENE,68,3.0,3.0,45,0.00,,,0.00,Wunderground v.1.15,2013-01-02 17:49:00,
2013-01-02 10:55:00,43.9,23.4,30.41,ENE,61,2.0,7.0,44,0.00,,,0.00,Wunderground v.1.15,2013-01-02 17:55:00,
2013-01-02 11:01:00,44.5,22.8,30.41,SE,129,2.0,5.0,42,0.00,,,0.00,Wunderground v.1.15,2013-01-02 18:01:00,
2013-01-02 11:07:00,44.8,23.1,30.41,ENE,74,3.0,5.0,42,0.00,,,0.00,Wunderground v.1.15,2013-01-02 18:07:00,
2013-01-02 11:13:00,44.5,22.8,30.40,East,101,3.0,5.0,42,0.00,,,0.00,Wunderground v.1.15,2013-01-02 18:13:00,
2013-01-02 11:19:00,44.8,23.1,30.40,ENE,64,3.0,4.0,42,0.00,,,0.00,Wunderground v.1.15,2013-01-02 18:19:00,
2013-01-02 11:25:00,44.6,22.9,30.39,NE,40,3.0,8.0,42,0.00,,,0.00,Wunderground v.1.15,2013-01-02 18:25:00,
2013-01-02 11:31:00,45.2,22.9,30.39,SE,131,3.0,4.0,41,0.00,,,0.00,Wunderground v.1.15,2013-01-02 18:31:00,
2013-01-02 11:37:00,45.7,23.3,30.38,ENE,72,3.0,4.0,41,0.00,,,0.00,Wunderground v.1.15,2013-01-02 18:37:00,
2013-01-02 11:43:00,46.0,23.0,30.38,East,92,3.0,5.0,40,0.00,,,0.00,Wunderground v.1.15,2013-01-02 18:43:00,
2013-01-02 11:49:00,46.1,22.5,30.38,SE,134,4.0,4.0,39,0.00,,,0.00,Wunderground v.1.15,2013-01-02 18:49:00,
2013-01-02 11:55:00,46.3,22.7,30.37,NE,45,4.0,5.0,39,0.00,,,0.00,Wunderground v.1.15,2013-01-02 18:55:00,
2013-01-02 12:01:00,46.9,23.2,30.37,ENE,58,3.0,4.0,39,0.00,,,0.00,Wunderground v.1.15,2013-01-02 19:01:00,
2013-01-02 12:07:00,47.3,22.9,30.36,SE,139,3.0,6.0,38,0.00,,,0.00,Wunderground v.1.15,2013-01-02 19:07:00,
2013-01-02 12:13:00,47.7,23.3,30.36,East,84,3.0,6.0,38,0.00,,,0.00,Wunderground v.1.15,2013-01-02 19:13:00,
2013-01-02 12:19:00,48.3,23.2,30.36,NNW,335,3.0,3.0,37,0.00,,,0.00,Wunderground v.1.15,2013-01-02 19:19:00,
2013-01-02 12:25:00,48.1,23.0,30.35,SE,134,3.0,8.0,37,0.00,,,0.00,Wunderground v.1.15,2013-01-02 19:25:00,
2013-01-02 12:31:00,48.5,22.7,30.35,SSW,208,4.0,4.0,36,0.00,,,0.00,Wunderground v.1.15,2013-01-02 19:31:00,
2013-01-02 12:37:00,48.5,22.7,30.34,ESE,117,4.0,4.0,36,0.00,,,0.00,Wunderground v.1.15,2013-01-02 19:37:00,
2013-01-02 12:43:00,48.5,22.7,30.34,SSW,208,4.0,4.0,36,0.00,,,0.00,Wunderground v.1.15,2013-01-02 19:43:00,
2013-01-02 12:49:00,49.1,22.6,30.33,SSE,166,3.0,4.0,35,0.00,,,0.00,Wunderground v.1.15,2013-01-02 19:49:00,
2013-01-02 12:55:00,49.5,22.9,30.33,ENE,72,3.0,4.0,35,0.00,,,0.00,Wunderground v.1.15,2013-01-02 19:55:00,
2013-01-02 13:01:00,49.5,22.3,30.33,ENE,58,3.0,10.0,34,0.00,,,0.00,Wunderground v.1.15,2013-01-02 20:01:00,
2013-01-02 13:07:00,49.6,22.3,30.33,NNE,30,3.0,10.0,34,0.00,,,0.00,Wunderground v.1.15,2013-01-02 20:07:00,
2013-01-02 13:13:00,49.7,22.4,30.32,SE,134,3.0,9.0,34,0.00,,,0.00,Wunderground v.1.15,2013-01-02 20:13:00,
2013-01-02 13:19:00,49.9,22.6,30.32,East,82,4.0,11.0,34,0.00,,,0.00,Wunderground v.1.15,2013-01-02 20:19:00,
2013-01-02 13:25:00,50.0,23.4,30.32,ENE,70,3.0,11.0,35,0.00,,,0.00,Wunderground v.1.15,2013-01-02 20:25:00,
2013-01-02 13:31:00,50.0,22.7,30.32,East,98,3.0,4.0,34,0.00,,,0.00,Wunderground v.1.15,2013-01-02 20:31:00,
2013-01-02 13:37:00,49.6,23.0,30.32,East,97,3.0,10.0,35,0.00,,,0.00,Wunderground v.1.15,2013-01-02 20:37:00,
2013-01-02 13:43:00,49.6,23.0,30.32,SE,128,3.0,4.0,35,0.00,,,0.00,Wunderground v.1.15,2013-01-02 20:43:00,
2013-01-02 13:49:00,50.0,22.7,30.32,East,84,3.0,3.0,34,0.00,,,0.00,Wunderground v.1.15,2013-01-02 20:49:00,
2013-01-02 13:55:00,50.1,22.8,30.31,ENE,61,2.0,4.0,34,0.00,,,0.00,Wunderground v.1.15,2013-01-02 20:55:00,
2013-01-02 14:01:00,49.3,23.4,30.31,SE,140,3.0,4.0,36,0.00,,,0.00,Wunderground v.1.15,2013-01-02 21:01:00,
2013-01-02 14:07:00,49.4,23.5,30.31,ESE,122,3.0,4.0,36,0.00,,,0.00,Wunderground v.1.15,2013-01-02 21:07:00,
2013-01-02 14:13:00,50.3,23.7,30.31,ESE,114,2.0,5.0,35,0.00,,,0.00,Wunderground v.1.15,2013-01-02 21:13:00,
2013-01-02 14:19:00,50.9,22.8,30.31,East,88,2.0,2.0,33,0.00,,,0.00,Wunderground v.1.15,2013-01-02 21:19:00,
2013-01-02 14:25:00,51.4,23.9,30.31,East,88,1.0,4.0,34,0.00,,,0.00,Wunderground v.1.15,2013-01-02 21:25:00,
2013-01-02 14:31:00,51.6,23.4,30.30,SE,143,1.0,4.0,33,0.00,,,0.00,Wunderground v.1.15,2013-01-02 21:31:00,
2013-01-02 14:37:00,51.7,23.5,30.30,East,97,2.0,4.0,33,0.00,,,0.00,Wunderground v.1.15,2013-01-02 21:37:00,
2013-01-02 14:43:00,52.0,24.5,30.30,ESE,122,2.0,5.0,34,0.00,,,0.00,Wunderground v.1.15,2013-01-02 21:43:00,
2013-01-02 14:49:00,51.4,23.9,30.30,East,85,2.0,5.0,34,0.00,,,0.00,Wunderground v.1.15,2013-01-02 21:49:00,
2013-01-02 14:55:00,51.7,24.2,30.30,ENE,77,2.0,5.0,34,0.00,,,0.00,Wunderground v.1.15,2013-01-02 21:55:00,
2013-01-02 15:01:00,51.5,24.0,30.30,ENE,62,2.0,4.0,34,0.00,,,0.00,Wunderground v.1.15,2013-01-02 22:01:00,
2013-01-02 15:07:00,51.6,24.1,30.31,ENE,77,2.0,4.0,34,0.00,,,0.00,Wunderground v.1.15,2013-01-02 22:07:00,
2013-01-02 15:13:00,51.4,23.9,30.30,SE,131,2.0,4.0,34,0.00,,,0.00,Wunderground v.1.15,2013-01-02 22:13:00,
2013-01-02 15:19:00,52.1,24.6,30.30,SE,127,1.0,4.0,34,0.00,,,0.00,Wunderground v.1.15,2013-01-02 22:19:00,
2013-01-02 15:25:00,52.7,24.4,30.30,SSE,148,1.0,4.0,33,0.00,,,0.00,Wunderground v.1.15,2013-01-02 22:25:00,
2013-01-02 15:31:00,52.5,24.2,30.30,ENE,61,1.0,3.0,33,0.00,,,0.00,Wunderground v.1.15,2013-01-02 22:31:00,
2013-01-02 15:37:00,51.7,24.2,30.30,ENE,58,2.0,4.0,34,0.00,,,0.00,Wunderground v.1.15,2013-01-02 22:37:00,
2013-01-02 15:43:00,51.4,23.9,30.30,ESE,104,1.0,4.0,34,0.00,,,0.00,Wunderground v.1.15,2013-01-02 22:43:00,
2013-01-02 15:49:00,52.4,24.1,30.30,East,84,1.0,1.0,33,0.00,,,0.00,Wunderground v.1.15,2013-01-02 22:49:00,
2013-01-02 15:55:00,52.0,24.5,30.30,East,96,1.0,4.0,34,0.00,,,0.00,Wunderground v.1.15,2013-01-02 22:55:00,
2013-01-02 16:01:00,52.3,24.7,30.30,ENE,74,1.0,4.0,34,0.00,,,0.00,Wunderground v.1.15,2013-01-02 23:01:00,
2013-01-02 16:07:00,52.1,25.3,30.30,East,89,0.0,4.0,35,0.00,,,0.00,Wunderground v.1.15,2013-01-02 23:07:00,
2013-01-02 16:13:00,52.5,24.2,30.30,SSE,156,0.0,4.0,33,0.00,,,0.00,Wunderground v.1.15,2013-01-02 23:13:00,
2013-01-02 16:19:00,51.9,24.4,30.29,ENE,61,1.0,1.0,34,0.00,,,0.00,Wunderground v.1.15,2013-01-02 23:19:00,
2013-01-02 16:25:00,52.2,24.6,30.29,SE,141,1.0,4.0,34,0.00,,,0.00,Wunderground v.1.15,2013-01-02 23:25:00,
2013-01-02 16:31:00,52.1,24.6,30.29,South,173,1.0,4.0,34,0.00,,,0.00,Wunderground v.1.15,2013-01-02 23:31:00,
2013-01-02 16:37:00,51.7,24.2,30.29,SE,143,1.0,4.0,34,0.00,,,0.00,Wunderground v.1.15,2013-01-02 23:37:00,
2013-01-02 16:43:00,51.4,24.6,30.29,SSE,151,0.0,4.0,35,0.00,,,0.00,Wunderground v.1.15,2013-01-02 23:43:00,
2013-01-02 16:49:00,51.1,24.4,30.29,East,97,0.0,4.0,35,0.00,,,0.00,Wunderground v.1.15,2013-01-02 23:49:00,
2013-01-02 16:55:00,50.4,25.1,30.29,East,79,0.0,4.0,37,0.00,,,0.00,Wunderground v.1.15,2013-01-02 23:55:00,
2013-01-02 17:01:00,50.2,24.9,30.30,ENE,74,0.0,4.0,37,0.00,,,0.00,Wunderground v.1.15,2013-01-03 00:01:00,
2013-01-02 17:07:00,49.5,24.3,30.29,SE,145,0.0,4.0,37,0.00,,,0.00,Wunderground v.1.15,2013-01-03 00:07:00,
2013-01-02 17:13:00,47.8,25.2,30.30,South,188,1.0,4.0,41,0.00,,,0.00,Wunderground v.1.15,2013-01-03 00:13:00,
2013-01-02 17:19:00,46.0,25.8,30.29,South,190,1.0,1.0,45,0.00,,,0.00,Wunderground v.1.15,2013-01-03 00:19:00,
2013-01-02 17:25:00,44.5,26.0,30.30,South,179,1.0,4.0,48,0.00,,,0.00,Wunderground v.1.15,2013-01-03 00:25:00,
2013-01-02 17:31:00,42.5,26.1,30.30,SSW,207,1.0,4.0,52,0.00,,,0.00,Wunderground v.1.15,2013-01-03 00:31:00,
2013-01-02 17:37:00,40.9,26.0,30.30,SW,218,1.0,4.0,55,0.00,,,0.00,Wunderground v.1.15,2013-01-03 00:37:00,
2013-01-02 17:43:00,39.7,25.7,30.30,WSW,250,0.0,4.0,57,0.00,,,0.00,Wunderground v.1.15,2013-01-03 00:43:00,
2013-01-02 17:49:00,38.8,25.7,30.30,South,180,1.0,4.0,59,0.00,,,0.00,Wunderground v.1.15,2013-01-03 00:49:00,
2013-01-02 17:55:00,37.8,25.1,30.30,SSW,211,2.0,4.0,60,0.00,,,0.00,Wunderground v.1.15,2013-01-03 00:55:00,
2013-01-02 18:01:00,37.1,25.3,30.30,SSW,201,2.0,4.0,62,0.00,,,0.00,Wunderground v.1.15,2013-01-03 01:01:00,
2013-01-02 18:07:00,36.9,25.1,30.30,SSW,210,2.0,4.0,62,0.00,,,0.00,Wunderground v.1.15,2013-01-03 01:07:00,
2013-01-02 18:13:00,36.5,25.1,30.31,WSW,239,2.0,4.0,63,0.00,,,0.00,Wunderground v.1.15,2013-01-03 01:13:00,
2013-01-02 18:19:00,36.0,25.0,30.31,SW,222,2.0,4.0,64,0.00,,,0.00,Wunderground v.1.15,2013-01-03 01:19:00,
2013-01-02 18:25:00,36.0,25.0,30.31,SSW,203,2.0,4.0,64,0.00,,,0.00,Wunderground v.1.15,2013-01-03 01:25:00,
2013-01-02 18:31:00,35.6,25.0,30.31,SSW,199,2.0,4.0,65,0.00,,,0.00,Wunderground v.1.15,2013-01-03 01:31:00,
2013-01-02 18:37:00,34.8,25.0,30.31,SSW,193,2.0,4.0,67,0.00,,,0.00,Wunderground v.1.15,2013-01-03 01:37:00,
2013-01-02 18:43:00,34.5,24.7,30.31,SSW,201,2.0,4.0,67,0.00,,,0.00,Wunderground v.1.15,2013-01-03 01:43:00,
2013-01-02 18:49:00,34.4,24.6,30.31,SW,231,2.0,4.0,67,0.00,,,0.00,Wunderground v.1.15,2013-01-03 01:49:00,
2013-01-02 18:55:00,34.6,24.8,30.31,SW,222,1.0,4.0,67,0.00,,,0.00,Wunderground v.1.15,2013-01-03 01:55:00,
2013-01-02 19:01:00,34.7,24.9,30.31,SW,226,1.0,4.0,67,0.00,,,0.00,Wunderground v.1.15,2013-01-03 02:01:00,
2013-01-02 19:07:00,34.4,24.6,30.31,WSW,238,1.0,4.0,67,0.00,,,0.00,Wunderground v.1.15,2013-01-03 02:07:00,
2013-01-02 19:13:00,34.0,24.5,30.31,SSW,200,1.0,4.0,68,0.00,,,0.00,Wunderground v.1.15,2013-01-03 02:13:00,
2013-01-02 19:19:00,34.2,24.7,30.31,SSW,203,1.0,4.0,68,0.00,,,0.00,Wunderground v.1.15,2013-01-03 02:19:00,
2013-01-02 19:25:00,34.9,24.7,30.32,SSW,211,1.0,4.0,66,0.00,,,0.00,Wunderground v.1.15,2013-01-03 02:25:00,
2013-01-02 19:31:00,35.3,24.7,30.31,SSW,205,0.0,4.0,65,0.00,,,0.00,Wunderground v.1.15,2013-01-03 02:31:00,
2013-01-02 19:37:00,35.4,24.4,30.31,WSW,239,0.0,4.0,64,0.00,,,0.00,Wunderground v.1.15,2013-01-03 02:37:00,
2013-01-02 19:43:00,35.2,24.2,30.32,SW,215,0.0,4.0,64,0.00,,,0.00,Wunderground v.1.15,2013-01-03 02:43:00,
2013-01-02 19:49:00,34.7,24.1,30.32,SW,219,0.0,4.0,65,0.00,,,0.00,Wunderground v.1.15,2013-01-03 02:49:00,
2013-01-02 19:55:00,34.3,24.1,30.32,SSW,207,0.0,4.0,66,0.00,,,0.00,Wunderground v.1.15,2013-01-03 02:55:00,
2013-01-02 20:01:00,34.3,24.5,30.32,SSW,206,0.0,4.0,67,0.00,,,0.00,Wunderground v.1.15,2013-01-03 03:01:00,
2013-01-02 20:07:00,34.8,24.6,30.32,South,181,0.0,4.0,66,0.00,,,0.00,Wunderground v.1.15,2013-01-03 03:07:00,
2013-01-02 20:13:00,35.8,24.8,30.32,SW,217,0.0,4.0,64,0.00,,,0.00,Wunderground v.1.15,2013-01-03 03:13:00,
2013-01-02 20:19:00,36.6,24.8,30.32,WSW,240,0.0,4.0,62,0.00,,,0.00,Wunderground v.1.15,2013-01-03 03:19:00,
2013-01-02 20:25:00,37.2,25.0,30.32,SW,235,0.0,4.0,61,0.00,,,0.00,Wunderground v.1.15,2013-01-03 03:25:00,
2013-01-02 20:31:00,37.1,24.9,30.33,SW,229,0.0,4.0,61,0.00,,,0.00,Wunderground v.1.15,2013-01-03 03:31:00,
2013-01-02 20:41:00,34.4,23.8,30.33,South,188,0.0,4.0,65,0.00,,,0.00,Wunderground v.1.15,2013-01-03 03:41:00,
2013-01-02 20:47:00,33.1,23.7,30.33,SW,223,0.0,4.0,68,0.00,,,0.00,Wunderground v.1.15,2013-01-03 03:47:00,
2013-01-02 20:53:00,32.6,23.9,30.32,SE,142,0.0,4.0,70,0.00,,,0.00,Wunderground v.1.15,2013-01-03 03:53:00,
2013-01-02 20:59:00,33.0,23.9,30.32,South,173,0.0,4.0,69,0.00,,,0.00,Wunderground v.1.15,2013-01-03 03:59:00,
2013-01-02 21:05:00,34.0,24.2,30.32,SSE,159,1.0,4.0,67,0.00,,,0.00,Wunderground v.1.15,2013-01-03 04:05:00,
2013-01-02 21:11:00,35.2,24.6,30.32,WSW,252,1.0,4.0,65,0.00,,,0.00,Wunderground v.1.15,2013-01-03 04:11:00,
2013-01-02 21:17:00,33.5,24.1,30.32,WSW,252,1.0,4.0,68,0.00,,,0.00,Wunderground v.1.15,2013-01-03 04:17:00,
2013-01-02 21:23:00,33.2,24.1,30.32,SW,224,2.0,4.0,69,0.00,,,0.00,Wunderground v.1.15,2013-01-03 04:23:00,
2013-01-02 21:29:00,33.1,24.0,30.32,SSW,194,2.0,2.0,69,0.00,,,0.00,Wunderground v.1.15,2013-01-03 04:29:00,
2013-01-02 21:35:00,32.7,23.6,30.32,SSW,210,2.0,4.0,69,0.00,,,0.00,Wunderground v.1.15,2013-01-03 04:35:00,
2013-01-02 21:41:00,32.4,23.7,30.33,SW,214,2.0,4.0,70,0.00,,,0.00,Wunderground v.1.15,2013-01-03 04:41:00,
2013-01-02 21:47:00,32.0,23.7,30.33,SSW,210,1.0,4.0,71,0.00,,,0.00,Wunderground v.1.15,2013-01-03 04:47:00,
2013-01-02 21:53:00,31.8,23.8,30.33,WSW,241,0.0,4.0,72,0.00,,,0.00,Wunderground v.1.15,2013-01-03 04:53:00,
2013-01-02 21:59:00,32.1,24.1,30.33,SW,224,1.0,1.0,72,0.00,,,0.00,Wunderground v.1.15,2013-01-03 04:59:00,
2013-01-02 22:03:00,32.3,23.9,30.33,SSW,195,1.0,4.0,71,0.00,,,0.00,Wunderground v.1.15,2013-01-03 05:03:00,
2013-01-02 22:05:00,32.2,23.8,30.33,SW,215,1.0,4.0,71,0.00,,,0.00,Wunderground v.1.15,2013-01-03 05:05:00,
2013-01-02 22:07:00,32.1,23.8,30.33,SW,217,1.0,4.0,71,0.00,,,0.00,Wunderground v.1.15,2013-01-03 05:07:00,
2013-01-02 22:11:00,31.9,23.9,30.33,SW,226,1.0,2.0,72,0.00,,,0.00,Wunderground v.1.15,2013-01-03 05:11:00,
2013-01-02 22:17:00,31.5,23.8,30.33,WSW,238,1.0,4.0,73,0.00,,,0.00,Wunderground v.1.15,2013-01-03 05:17:00,
2013-01-02 22:23:00,31.9,23.9,30.33,SW,226,1.0,4.0,72,0.00,,,0.00,Wunderground v.1.15,2013-01-03 05:23:00,
2013-01-02 22:29:00,32.1,23.8,30.32,SW,214,1.0,4.0,71,0.00,,,0.00,Wunderground v.1.15,2013-01-03 05:29:00,
2013-01-02 22:35:00,32.2,23.8,30.33,NW,325,2.0,4.0,71,0.00,,,0.00,Wunderground v.1.15,2013-01-03 05:35:00,
2013-01-02 22:41:00,32.7,24.3,30.33,WNW,283,1.0,4.0,71,0.00,,,0.00,Wunderground v.1.15,2013-01-03 05:41:00,
2013-01-02 22:47:00,32.6,24.2,30.33,WNW,291,0.0,4.0,71,0.00,,,0.00,Wunderground v.1.15,2013-01-03 05:47:00,
2013-01-02 22:53:00,32.2,24.2,30.33,SSW,211,0.0,4.0,72,0.00,,,0.00,Wunderground v.1.15,2013-01-03 05:53:00,
2013-01-02 22:59:00,31.9,23.9,30.33,SSW,207,0.0,4.0,72,0.00,,,0.00,Wunderground v.1.15,2013-01-03 05:59:00,
2013-01-02 23:05:00,31.4,23.7,30.33,South,172,0.0,4.0,73,0.00,,,0.00,Wunderground v.1.15,2013-01-03 06:05:00,
2013-01-02 23:11:00,31.1,23.8,30.33,SSW,195,2.0,4.0,74,0.00,,,0.00,Wunderground v.1.15,2013-01-03 06:11:00,
2013-01-02 23:17:00,30.5,23.5,30.33,SSW,205,2.0,4.0,75,0.00,,,0.00,Wunderground v.1.15,2013-01-03 06:17:00,
2013-01-02 23:23:00,30.9,23.6,30.33,WSW,238,1.0,4.0,74,0.00,,,0.00,Wunderground v.1.15,2013-01-03 06:23:00,
2013-01-02 23:29:00,31.5,23.5,30.33,SW,236,1.0,4.0,72,0.00,,,0.00,Wunderground v.1.15,2013-01-03 06:29:00,
2013-01-02 23:35:00,31.7,23.7,30.33,SW,218,1.0,4.0,72,0.00,,,0.00,Wunderground v.1.15,2013-01-03 06:35:00,
2013-01-02 23:41:00,31.6,23.9,30.32,SW,232,1.0,4.0,73,0.00,,,0.00,Wunderground v.1.15,2013-01-03 06:41:00,
2013-01-02 23:47:00,32.2,24.2,30.32,SW,233,1.0,4.0,72,0.00,,,0.00,Wunderground v.1.15,2013-01-03 06:47:00,
2013-01-02 23:53:00,32.4,24.0,30.32,South,181,1.0,4.0,71,0.00,,,0.00,Wunderground v.1.15,2013-01-03 06:53:00,
2013-01-02 23:59:00,31.0,23.4,30.32,SSW,212,1.0,1.0,73,0.00,,,0.00,Wunderground v.1.15,2013-01-03 06:59:00,